﻿Дата;Google;AdRiver
2020-06-05;1;0
2015-06-10;1;0
2015-05-11;2;0
2015-05-09;1;0
2015-05-08;6;0
2015-05-07;5;0
2015-05-06;3;0
2015-05-05;2;0
2015-05-04;2;0
2015-05-02;1;0
2015-05-01;1;0
2015-04-30;2;0
2015-04-29;3;0
2015-04-28;6;0
2015-04-27;3;0
2015-04-25;1;0
2015-04-24;2;0
2015-04-23;2;0
2015-04-22;4;0
2015-04-21;5;0
2015-04-20;7;0
2015-04-18;2;0
2015-04-17;3;0
2015-04-16;4;0
2015-04-15;6;0
2015-04-14;4;0
2015-04-13;5;0
2015-04-11;2;0
2015-04-09;4;0
2015-04-08;3;0
2015-04-07;8;0
2015-04-06;4;0
2015-04-05;1;0
2015-04-04;3;0
2015-04-03;9;0
2015-04-02;7;0
2015-04-01;5;0
2015-03-31;9;0
2015-03-30;10;0
2015-03-28;3;0
2015-03-27;4;0
2015-03-26;8;0
2015-03-25;5;0
2015-03-24;6;0
2015-03-23;9;0
2015-03-21;7;0
2015-03-20;6;0
2015-03-19;1;0
2015-03-18;3;0
2015-03-17;7;0
2015-03-16;7;0
2015-03-14;3;0
2015-03-13;5;0
2015-03-12;5;0
2015-03-11;5;0
2015-03-10;5;0
2015-03-09;3;0
2015-03-07;1;0
2015-03-06;1;0
2015-03-05;4;0
2015-03-04;2;0
2015-03-03;4;0
2015-03-02;2;0
2015-02-28;1;0
2015-02-27;2;0
2015-02-26;1;0
2015-02-24;5;0
2015-02-23;2;0
2015-02-20;3;0
2015-02-18;5;0
2015-02-17;1;0
2015-02-16;1;0
2015-02-14;1;0
2015-02-13;1;0
2015-02-12;1;0
2015-02-11;1;0
2015-02-10;3;0
2015-02-09;4;0
2015-02-07;1;0
2015-02-06;3;0
2015-02-05;1;0
2015-02-03;3;0
2015-01-28;1;0
2015-01-27;1;0
2015-01-22;4;0
2015-01-21;10;0
2015-01-20;3;0
2015-01-19;12;0
2015-01-17;12;0
2015-01-16;10;0
2015-01-15;9;0
2014-12-30;2;0
2014-12-26;10;0
2014-12-25;10;0
2014-12-24;10;0
2014-12-23;14;0
2014-12-22;21;0
2014-12-20;13;0
2014-12-19;14;0
2014-12-18;9;0
2014-12-17;10;0
2014-12-16;12;0
2014-12-15;13;0
2014-12-13;4;0
2014-12-12;9;0
2014-12-11;6;0
2014-12-10;10;0
2014-12-09;4;0
2014-12-08;13;0
2014-12-06;5;0
2014-12-05;8;0
2014-12-04;14;0
2014-12-03;15;0
2014-12-02;16;0
2014-12-01;8;0
2014-11-29;7;0
2014-11-28;16;0
2014-11-27;17;0
2014-11-26;22;0
2014-11-25;20;0
2014-11-24;29;0
2014-11-22;3;0
2014-11-21;24;0
2014-11-20;18;0
2014-11-19;24;0
2014-11-18;16;0
2014-11-17;19;0
2014-11-15;14;0
2014-11-14;17;0
2014-11-13;13;0
2014-11-12;18;0
2014-11-11;24;0
2014-11-10;27;0
2014-11-08;8;0
2014-11-07;31;0
2014-11-06;27;0
2014-11-05;19;0
2014-11-04;26;0
2014-11-03;27;0
2014-11-01;9;0
2014-10-31;24;1
2014-10-30;21;0
2014-10-29;31;0
2014-10-28;23;0
2014-10-27;19;0
2014-10-25;11;0
2014-10-24;23;0
2014-10-23;23;0
2014-10-22;15;0
2014-10-21;20;0
2014-10-20;40;0
2014-10-18;16;0
2014-10-17;20;0
2014-10-16;34;0
2014-10-15;18;0
2014-10-14;28;0
2014-10-13;22;0
2014-10-11;8;0
2014-10-10;9;0
2014-10-09;8;0
2014-10-08;18;0
2014-10-07;18;0
2014-10-06;16;0
2014-10-04;3;0
2014-10-03;8;0
2014-10-02;14;0
2014-10-01;16;0
2014-09-30;10;0
2014-09-29;25;0
2014-09-27;4;0
2014-09-26;12;0
2014-09-25;17;0
2014-09-24;23;0
2014-09-23;19;0
2014-09-22;29;0
2014-09-20;6;0
2014-09-19;26;0
2014-09-18;22;0
2014-09-17;13;0
2014-09-16;23;0
2014-09-15;22;0
2014-09-13;7;0
2014-09-12;25;0
2014-09-11;22;0
2014-09-10;28;0
2014-09-09;21;0
2014-09-08;20;0
2014-09-06;8;0
2014-09-05;17;0
2014-09-04;19;0
2014-09-03;20;0
2014-09-02;21;0
2014-09-01;24;0
2014-08-30;3;0
2014-08-29;17;0
2014-08-28;27;0
2014-08-27;25;0
2014-08-26;14;0
2014-08-25;17;0
2014-08-23;3;0
2014-08-22;3;0
2014-08-21;19;0
2014-08-20;19;0
2014-08-19;25;0
2014-08-18;22;0
2014-08-17;1;0
2014-08-16;4;0
2014-08-15;21;0
2014-08-14;28;0
2014-08-13;15;0
2014-08-12;21;0
2014-08-11;22;0
2014-08-09;5;0
2014-08-08;21;0
2014-08-07;29;0
2014-08-06;19;0
2014-08-05;22;0
2014-08-04;19;0
2014-08-03;1;0
2014-08-02;11;0
2014-08-01;18;0
2014-07-31;25;0
2014-07-30;31;0
2014-07-29;18;0
2014-07-28;20;0
2014-07-26;8;0
2014-07-25;25;0
2014-07-24;30;0
2014-07-23;27;0
2014-07-22;14;0
2014-07-21;21;0
2014-07-20;9;0
2014-07-19;1;0
2014-07-18;23;0
2014-07-17;20;0
2014-07-16;22;0
2014-07-15;24;0
2014-07-14;34;0
2014-07-13;6;0
2014-07-12;8;0
2014-07-11;27;0
2014-07-10;25;0
2014-07-09;24;0
2014-07-08;31;0
2014-07-07;19;0
2014-07-06;2;0
2014-07-05;3;0
2014-07-04;22;0
2014-07-03;22;0
2014-07-02;33;0
2014-07-01;15;0
2014-06-30;16;0
2014-06-29;4;0
2014-06-28;1;0
2014-06-27;34;0
2014-06-26;31;0
2014-06-25;25;0
2014-06-24;14;0
2014-06-23;26;0
2014-06-22;7;0
2014-06-21;2;0
2014-06-20;25;0
2014-06-19;16;0
2014-06-18;17;0
2014-06-17;15;0
2014-06-16;32;0
2014-06-15;6;0
2014-06-14;7;0
2014-06-13;18;0
2014-06-12;19;0
2014-06-11;23;0
2014-06-10;12;0
2014-06-09;14;0
2014-06-08;2;0
2014-06-07;1;0
2014-06-06;7;0
2014-06-05;12;0
2014-06-04;9;0
2014-06-03;2;0
2014-06-02;4;0
2014-05-30;6;0
2014-05-29;3;0
2014-05-28;10;0
2014-05-27;5;0
2014-05-23;3;0
2014-05-22;1;0
2014-05-20;1;0
2014-05-19;1;0
2014-05-16;7;0
2014-05-15;3;0
2014-05-14;4;0
2014-05-13;6;0
2014-05-12;4;0
2014-05-09;13;0
2014-05-08;5;0
2014-05-07;7;0
2014-05-06;3;0
2014-05-05;3;0
2014-05-02;10;0
2014-05-01;7;0
2014-04-30;1;0
2014-04-14;1;0
2014-03-31;10;0
2014-03-28;8;0
2014-03-27;8;0
2014-03-26;4;0
2014-03-25;4;0
2014-03-24;8;0
2014-03-21;4;0
2014-03-20;4;0
2014-03-19;10;1
2014-03-18;15;0
2014-03-17;7;0
2014-03-14;9;0
2014-03-13;6;0
2014-03-12;8;0
2014-03-11;9;0
2014-03-10;6;0
2014-03-08;1;0
2014-03-07;3;0
2014-03-06;8;0
2014-03-05;8;0
2014-03-04;12;0
2014-03-03;23;0
2014-02-28;13;0
2014-02-27;11;0
2014-02-26;21;0
2014-02-25;15;0
2014-02-24;11;0
2014-02-21;7;0
2014-02-20;8;0
2014-02-19;18;0
2014-02-18;7;0
2014-02-17;10;0
2014-02-14;13;0
2014-02-13;6;0
2014-02-12;18;0
2014-02-11;12;0
2014-02-10;14;0
2014-02-07;23;0
2014-02-06;8;0
2014-02-05;12;0
2014-02-04;19;0
2014-02-03;20;0
2014-02-01;16;0
2014-01-31;14;0
2014-01-30;21;0
2014-01-29;20;0
2014-01-28;30;0
2014-01-27;18;0
2014-01-25;15;0
2014-01-24;18;1
2014-01-23;17;0
2014-01-22;20;0
2014-01-21;20;0
2014-01-20;13;0
2014-01-18;17;0
2014-01-17;16;0
2014-01-16;13;0
2014-01-15;20;0
2014-01-14;22;0
2014-01-13;16;0
2014-01-11;13;0
2014-01-10;12;0
2014-01-09;9;0
2014-01-08;11;0
2013-12-31;1;0
2013-12-30;9;0
2013-12-28;12;0
2013-12-27;2;0
2013-12-26;11;0
2013-12-25;9;0
2013-12-24;7;0
2013-12-23;8;0
2013-12-21;6;0
2013-12-20;27;0
2013-12-19;23;0
2013-12-18;15;0
2013-12-17;24;0
2013-12-16;21;0
2013-12-14;9;0
2013-12-13;31;0
2013-12-12;22;0
2013-12-11;25;0
2013-12-10;21;0
2013-12-09;15;0
2013-12-07;10;0
2013-12-06;22;0
2013-12-05;16;0
2013-12-04;27;0
2013-12-03;40;0
2013-12-02;23;0
2013-11-30;14;0
2013-11-29;26;0
2013-11-28;23;0
2013-11-27;19;0
2013-11-26;20;1
2013-11-25;22;0
2013-11-23;12;0
2013-11-22;9;0
2013-11-21;14;0
2013-11-20;16;0
2013-11-19;18;0
2013-11-18;20;0
2013-11-16;8;0
2013-11-15;22;0
2013-11-14;33;0
2013-11-13;33;0
2013-11-12;20;0
2013-11-11;10;0
2013-11-09;4;0
2013-11-08;17;0
2013-11-07;20;0
2013-11-06;19;0
2013-11-05;23;0
2013-11-04;22;0
2013-11-02;7;0
2013-11-01;19;0
2013-10-31;24;0
2013-10-30;27;0
2013-10-29;24;0
2013-10-28;21;0
2013-10-26;2;0
2013-10-25;22;0
2013-10-24;18;0
2013-10-23;28;1
2013-10-22;27;0
2013-10-21;22;0
2013-10-19;5;0
2013-10-18;20;0
2013-10-17;12;0
2013-10-16;21;0
2013-10-15;22;0
2013-10-14;25;0
2013-10-12;1;0
2013-10-11;16;0
2013-10-10;17;0
2013-10-09;11;0
2013-10-08;13;0
2013-10-07;15;0
2013-10-05;4;0
2013-10-04;12;1
2013-10-03;14;0
2013-10-02;13;0
2013-10-01;13;0
2013-09-30;19;0
2013-09-28;8;0
2013-09-27;14;0
2013-09-26;24;0
2013-09-25;9;0
2013-09-24;15;0
2013-09-23;19;0
2013-09-22;1;0
2013-09-21;32;0
2013-09-20;102;0
2013-09-19;93;0
2013-09-18;58;0
2013-09-17;61;0
2013-09-16;73;0
2013-09-14;30;0
2013-09-13;80;0
2013-09-12;63;0
2013-09-11;59;0
2013-09-10;67;0
2013-09-09;81;0
2013-09-07;26;0
2013-09-06;59;0
2013-09-05;44;0
2013-09-04;48;0
2013-09-03;69;0
2013-09-02;60;0
2013-08-31;31;0
2013-08-30;60;0
2013-08-29;83;0
2013-08-28;80;0
2013-08-27;63;0
2013-08-26;44;0
2013-08-24;14;0
2013-08-23;38;0
2013-08-22;54;0
2013-08-21;44;0
2013-08-20;62;0
2013-08-19;62;0
2013-08-17;34;0
2013-08-16;69;0
2013-08-15;58;0
2013-08-14;86;0
2013-08-13;87;0
2013-08-12;82;0
2013-08-11;1;0
2013-08-10;15;0
2013-08-09;57;0
2013-08-08;82;0
2013-08-07;90;0
2013-08-06;86;0
2013-08-05;68;1
2013-08-03;30;0
2013-08-02;77;0
2013-08-01;60;0
2013-07-31;60;0
2013-07-30;64;0
2013-07-29;52;0
2013-07-27;19;0
2013-07-26;52;0
2013-07-25;59;0
2013-07-24;54;0
2013-07-23;47;0
2013-07-22;67;0
2013-07-20;32;0
2013-07-19;46;0
2013-07-18;48;0
2013-07-17;45;0
2013-07-16;58;0
2013-07-15;52;0
2013-07-13;15;0
2013-07-12;47;0
2013-07-11;47;0
2013-07-10;45;0
2013-07-09;48;0
2013-07-08;50;0
2013-07-06;26;0
2013-07-05;47;0
2013-07-04;62;0
2013-07-03;62;0
2013-07-02;49;0
2013-07-01;42;0
2013-06-30;1;0
2013-06-29;28;0
2013-06-28;49;0
2013-06-27;45;0
2013-06-26;45;0
2013-06-25;39;0
2013-06-24;60;0
2013-06-22;21;0
2013-06-21;46;0
2013-06-20;50;0
2013-06-19;46;0
2013-06-18;45;0
2013-06-17;58;0
2013-06-15;25;0
2013-06-14;42;0
2013-06-13;32;0
2013-06-12;51;0
2013-06-11;42;0
2013-06-10;33;0
2013-06-08;25;0
2013-06-07;23;0
2013-06-06;2;0
2013-06-05;2;0
2013-03-23;1;0
2013-03-20;46;0
2013-03-19;40;0
2013-03-18;35;0
2013-03-17;35;0
2013-03-16;34;0
2013-03-15;29;0
2013-03-14;43;0
2013-03-13;42;0
2013-03-12;33;0
2013-03-11;71;0
2013-03-10;1;0
2013-03-09;39;0
2013-03-08;60;0
2013-03-07;41;0
2013-03-06;32;0
2013-03-05;43;0
2013-03-04;44;0
2013-03-03;36;0
2013-03-02;44;0
2013-03-01;12;0
2013-02-28;18;0
2013-02-27;4;0
2013-02-26;26;0
2013-02-25;23;0
2013-02-23;44;0
2013-02-22;57;0
2013-02-21;39;0
2013-02-20;35;0
2013-02-19;39;0
2013-02-18;49;0
2013-02-16;54;0
2013-02-15;49;0
2013-02-14;46;0
2013-02-13;42;0
2013-02-12;52;0
2013-02-11;57;0
2013-02-09;59;0
2013-02-08;77;0
2013-02-07;63;0
2013-02-06;68;0
2013-02-05;27;0
2013-02-04;48;0
2013-02-02;54;0
2013-02-01;66;0
2013-01-31;60;0
2013-01-30;77;0
2013-01-29;58;0
2013-01-28;46;0
2013-01-26;67;0
2013-01-25;56;0
2013-01-23;49;0
2013-01-22;51;0
2013-01-21;68;0
2013-01-19;55;0
2013-01-18;81;0
2013-01-17;75;0
2013-01-16;80;0
2013-01-15;89;0
2013-01-11;25;0
2013-01-09;4;0
2013-01-08;62;0
2013-01-07;45;0
2013-01-05;37;0
2013-01-04;55;0
2013-01-03;39;0
2012-12-29;20;0
2012-12-28;15;0
2012-12-27;36;0
2012-12-26;25;0
2012-12-25;25;0
2012-12-24;30;0
2012-12-22;41;0
2012-12-21;29;0
2012-12-20;30;0
2012-12-19;28;0
2012-12-18;34;0
2012-12-17;31;0
2012-12-15;27;0
2012-12-14;36;0
2012-12-13;40;0
2012-12-12;37;0
2012-12-11;31;0
2012-12-10;30;0
2012-12-08;16;0
2012-12-07;20;0
2012-12-06;24;0
2012-12-05;21;0
2012-12-04;22;0
2012-12-03;27;0
2012-12-01;12;0
2012-11-30;17;0
2012-11-29;30;0
2012-11-28;27;0
2012-11-27;30;0
2012-11-26;24;0
2012-11-24;15;0
2012-11-23;16;0
2012-11-22;19;0
2012-11-21;28;0
2012-11-20;26;0
2012-11-19;22;0
2012-11-17;12;0
2012-11-16;24;0
2012-11-15;29;0
2012-11-14;19;0
2012-11-13;33;0
2012-11-12;34;0
2012-11-10;20;0
2012-11-09;14;0
2012-11-08;32;0
2012-11-07;44;0
2012-11-06;32;0
2012-11-05;48;0
2012-11-03;15;0
2012-11-02;30;0
2012-11-01;39;0
2012-10-31;34;0
2012-10-30;42;0
2012-10-29;43;0
2012-10-27;20;0
2012-10-26;41;0
2012-10-25;28;0
2012-10-24;31;0
2012-10-23;31;0
2012-10-22;16;0
2012-10-20;11;0
2012-10-19;36;0
2012-10-18;54;0
2012-10-17;47;0
2012-10-16;44;0
2012-10-15;21;0
2012-10-13;14;0
2012-10-12;30;0
2012-10-11;44;0
2012-10-10;26;0
2012-10-09;40;0
2012-10-08;10;0
2012-10-06;15;0
2012-10-05;11;0
2012-10-04;14;0
2012-10-03;31;0
2012-10-02;9;0
2012-10-01;5;0
2012-09-29;16;0
2012-09-28;29;0
2012-09-27;35;0
2012-09-26;34;0
2012-09-25;24;0
2012-09-24;27;0
2012-09-21;13;0
2012-09-20;18;0
2012-09-19;25;0
2012-09-18;27;0
2012-09-17;4;0
2012-09-16;55;0
2012-09-15;55;0
2012-09-14;49;0
2012-09-13;22;0
2012-09-12;10;0
2012-09-11;32;0
2012-09-10;13;0
2012-09-08;18;0
2012-09-07;38;0
2012-09-06;35;0
2012-09-05;54;0
2012-09-04;37;0
2012-09-03;28;0
2012-09-02;4;0
2012-09-01;37;0
2012-08-31;33;0
2012-08-30;37;0
2012-08-29;28;0
2012-08-28;22;0
2012-08-27;12;0
2012-03-26;11;0
2012-03-25;32;0
2012-03-24;4;0
2012-03-23;27;0
2012-03-22;4;0
2012-03-21;18;0
2012-03-20;7;0
2012-03-19;24;0
2012-03-18;25;0
2012-03-17;29;0
2012-03-16;26;1
2012-03-15;48;0
2012-03-14;42;0
2012-03-13;57;0
2012-03-12;45;0
2012-03-08;24;0
2012-03-07;65;0
2012-03-06;36;0
2012-03-05;48;0
2012-03-04;71;0
2012-03-03;50;0
2012-03-02;50;0
2012-02-29;43;0
2012-02-28;36;0
2012-02-27;46;0
2012-02-26;38;0
2012-02-25;65;0
2012-02-24;25;0
2012-02-23;41;0
2012-02-22;24;0
2012-02-21;1;0
2012-02-02;29;0
2012-01-31;41;0
2012-01-30;95;0
2012-01-29;76;0
2012-01-28;62;0
2012-01-27;65;0
2012-01-26;65;0
2012-01-25;26;0
2011-11-25;17;0
2011-11-24;53;0
